Weather Roundup
Issued by NWS

Home | Current Version | Previous Version | Text Only | Print | Product List | Glossary On
Versions: 1 2 3 4 5 6 7 8 9 10 11 12 13 14 15 16 17 18 19 20 21 22 23 24 25 26 27 28 29 30 31 32 33 34 35 36 37 38 39 40 41 42 43 44 45 46 47 48 49 50
096
NZUS93 KARX 240910
HRRWXR

CURRENT HOURLY OBSERVATIONS ACROSS
MUCH OF THE UPPER MISSISSIPPI VALLEY
NATIONAL WEATHER SERVICE LA CROSSE WI
400 AM CDT MON APR 24 2017


...SOUTHEAST MINNESOTA...


CITY           SKY/WX    TMP DP  RH WIND       PRES   REMARKS
ROCHESTER      PTCLDY    49  35  58 S12       29.89S
ROCHESTER/MAYO FAIR      51  34  52 SE6       29.89S
WINONA         CLEAR     48  41  76 S7        29.92S
AUSTIN         CLOUDY    50  34  53 S9        29.87F
ALBERT LEA     CLOUDY    50  32  50 S8        29.86F
DODGE CENTER   PTCLDY    48  36  61 S10       29.87F
PRESTON        CLEAR     48  32  54 S7        29.91S
OWATONNA       PTCLDY    52  34  50 S13       29.85S
FARIBAULT      CLOUDY    54  36  50 S7        29.85S
$$

...ELSEWHERE IN MINNESOTA...


CITY           SKY/WX    TMP DP  RH WIND       PRES   REMARKS
MINNEAPOLIS    PTCLDY    50  37  61 SE5       29.83F
INTNL FALLS    LGT SNOW  32  28  85 E7        29.97F FOG     WCI  26
DULUTH         CLOUDY    31  27  85 E22G38    29.92F WCI  18
RED WING       MOCLDY    55  30  38 S8        29.86R
REDWOOD FALLS  PTCLDY    50  33  52 S13       29.75S
MANKATO        PTCLDY    52  33  48 S10       29.82F
WORTHINGTON    CLOUDY    53  33  46 S18       29.77F
FAIRMONT       PTCLDY    49  34  56 S10       29.82F
$$

...SOUTHWEST WISCONSIN...


CITY           SKY/WX    TMP DP  RH WIND       PRES   REMARKS
LA CROSSE      CLEAR     50  41  71 E13       29.93S
PRAIRIE DU CHI CLEAR     46  34  61 E3        29.94F
BOSCOBEL       CLEAR     47  42  83 VRB3      29.97S
LONE ROCK      PTCLDY    40  36  86 E7        29.99R
PLATTEVILLE    CLEAR     49  35  60 E9        29.97S
FORT MC COY    PTCLDY    40  37  89 E5        29.98S
CAMP DOUGLAS   PTCLDY    37  33  86 E7        29.99F WCI  31
MAUSTON-NEW LI MOSUNNY   38  34  85 E5        30.00S WCI  34
VIROQUA        FAIR      44  40  87 E9        29.95F
WIS DELLS      PTCLDY    36  33  89 E8        30.00S WCI  30
$$

...ELSEWHERE IN WISCONSIN...


CITY           SKY/WX    TMP DP  RH WIND       PRES   REMARKS
MILWAUKEE      PTCLDY    40  35  83 NE7       30.03S
MADISON        CLEAR     37  33  85 E5        30.01S WCI  33
GREEN BAY      PTCLDY    37  30  75 E9        30.05F WCI  30
EAU CLAIRE     PTCLDY    42  37  82 SE8       29.93S
BLACK RVR FLS  FAIR      40  35  81 E6        29.97F
MEDFORD        CLOUDY    33  28  83 SE6       29.97S WCI  27
WAUSAU         CLOUDY    33  26  75 SE10      30.00F WCI  25
WIS RAPIDS     CLEAR     35  28  75 E8        30.01F WCI  29
MARSHFIELD     CLOUDY    35  28  75 E10       29.98F WCI  27
RICE LAKE      PTCLDY    41  36  81 SE14      29.92S
$$

...NORTHEAST IOWA...


CITY           SKY/WX    TMP DP  RH WIND       PRES   REMARKS
WATERLOO       CLEAR     50  31  48 S6        29.91F
DUBUQUE        CLEAR     48  32  53 S6        29.96F
DECORAH        CLEAR     50  32  50 S7        29.92S
MASON CITY     CLEAR     43  35  73 S10       29.89F
CHARLES CITY   CLEAR     48  32  53 S9        29.91S
OELWEIN        CLOUDY    46  34  61 SE7       29.93S
$$

...ELSEWHERE IN IOWA...


CITY           SKY/WX    TMP DP  RH WIND       PRES   REMARKS
DES MOINES     MOCLDY    50  33  52 S8        29.90F
IOWA CITY      CLEAR     44  37  76 CALM      29.97R
FORT DODGE     CLOUDY    54  30  40 S10       29.86F
MARSHALLTOWN   CLOUDY    49  33  54 S7        29.91F
CEDAR RAPIDS   CLOUDY    46  32  58 S3        29.94S
$$

...NORTHERN ILLINOIS...


CITY           SKY/WX    TMP DP  RH WIND       PRES   REMARKS
CHICAGO-OHARE  PTCLDY    41  37  86 NE7       30.01S
CHICAGO-MIDWAY PTCLDY    44  39  82 N5        30.03R
MOLINE         CLEAR     44  34  67 CALM      29.97S
ROCKFORD       PTCLDY    45  36  70 E3        30.02S
PEORIA         CLEAR     46  28  49 CALM      29.98F
$$

NOTE: "FAIR" INDICATES FEW OR NO CLOUDS BELOW 12,000 FEET WITH NO
SIGNIFICANT WEATHER AND/OR OBSTRUCTIONS TO VISIBILITY. WIND
SPEEDS ARE IN MILES-PER-HOUR.




USA.gov is the U.S. government's official web portal to all federal, state and local government web resources and services.